Volver al catálogo

GOSAT-GW

ActivoCienciaSSO
NORAD 64694·PAYLOAD·🇯🇵 Japan

Lanzado Jun 28, 2025 desde Tanegashima Space Center

Loading…

Próximos Pases (próximas 24 horas)

TLE

ActualizadoSource: Space-Track

Época: Sep 14, 2026, 13:49 UTC

1 64694U 25141A   26257.57605854  .00000484  00000-0  93803-4 0  9997
2 64694  98.0599 193.4469 0001434  84.4521 275.6847 14.67554587 64958

Sigue GOSAT-GW en tiempo real con AllMySat

Download on the App Store